DW8039 Weather Reports


Display with metric or nautical units.
time (UTC)temp
F
wind
direction
speed
MPH
gust
MPH
rain 1hr
in
rain 24hr
in
rain mn
in
humidity
%
barometer
mb
20260507185904 55 119 1.0 9.0 0.00 0.00 0.00 64 1015.0
20260507185403 55 122 2.0 8.0 0.00 0.00 0.00 63 1015.0
20260507183403 55 130 0.0 6.0 0.00 0.00 0.00 62 1015.0
20260507182904 55 139 2.0 8.0 0.00 0.00 0.00 61 1015.0
20260507182403 55 121 1.0 10.0 0.00 0.00 0.00 61 1014.9
20260507180903 56 113 4.0 8.0 0.00 0.00 0.00 59 1014.8
20260507175903 57 106 3.0 9.0 0.00 0.00 0.00 58 1014.9
20260507175403 57 123 3.0 12.0 0.00 0.00 0.00 58 1014.8
20260507173404 57 133 3.0 12.0 0.00 0.00 0.00 58 1014.9
20260507172904 58 132 4.0 9.0 0.00 0.00 0.00 59 1015.0
20260507172405 58 117 3.0 9.0 0.00 0.00 0.00 59 1015.0
20260507170904 59 140 2.0 8.0 0.00 0.00 0.00 59 1014.9
20260507170404 59 150 2.0 5.0 0.00 0.00 0.00 57 1015.0
20260507165904 59 171 2.0 7.0 0.00 0.00 0.00 57 1014.9
20260507165404 59 136 2.0 10.0 0.00 0.01 0.00 61 1014.9
20260507163404 58 134 4.0 12.0 0.00 0.01 0.00 59 1015.0
20260507162903 58 101 5.0 13.0 0.00 0.01 0.00 60 1014.9
20260507162404 58 118 3.0 12.0 0.00 0.01 0.00 61 1015.0
20260507160904 56 128 3.0 8.0 0.00 0.01 0.00 65 1015.1
20260507160404 56 138 1.0 3.0 0.00 0.01 0.00 66 1015.0
20260507155904 56 138 1.0 8.0 0.00 0.01 0.00 68 1015.1
20260507155404 55 128 1.0 7.0 0.00 0.01 0.00 69 1015.1
20260507153903 55 85 1.0 6.0 0.00 0.01 0.00 72 1015.1
20260507153404 55 123 1.0 3.0 0.00 0.01 0.00 73 1015.2
20260507152904 55 141 1.0 5.0 0.00 0.01 0.00 72 1015.2
20260507150904 56 178 2.0 5.0 0.00 0.01 0.00 69 1015.4
20260507145904 56 165 2.0 6.0 0.00 0.01 0.00 69 1015.4
20260507145404 55 141 3.0 9.0 0.00 0.01 0.00 69 1015.4
20260507143904 55 156 5.0 12.0 0.00 0.02 0.00 68 1015.5
20260507143404 56 161 6.0 12.0 0.00 0.03 0.00 68 1015.7
20260507142903 56 157 3.0 10.0 0.00 0.03 0.00 69 1015.7
20260507142404 56 184 5.0 13.0 0.00 0.03 0.00 63 1015.7
20260507140903 57 173 3.0 8.0 0.00 0.03 0.00 64 1015.8
20260507140404 58 170 5.0 14.0 0.00 0.03 0.00 61 1015.9
20260507135904 58 162 6.0 15.0 0.00 0.03 0.00 62 1015.9
20260507133904 58 115 2.0 10.0 0.00 0.03 0.00 63 1015.9
20260507132904 58 168 4.0 10.0 0.00 0.03 0.00 60 1015.9
20260507132403 58 174 5.0 12.0 0.00 0.03 0.00 61 1016.0
20260507130404 57 165 3.0 7.0 0.00 0.03 0.00 63 1016.1
20260507125904 57 164 5.0 10.0 0.00 0.03 0.00 64 1016.1
20260507125404 56 190 2.0 7.0 0.00 0.03 0.00 65 1016.1
20260507123904 55 168 2.0 10.0 0.00 0.03 0.00 67 1016.2
20260507123404 55 165 4.0 10.0 0.00 0.03 0.00 67 1016.2
20260507122903 55 161 3.0 10.0 0.00 0.03 0.00 67 1016.3
20260507122404 55 188 2.0 9.0 0.00 0.03 0.00 67 1016.3
20260507120904 55 159 5.0 9.0 0.00 0.03 0.00 67 1016.3
20260507120404 55 157 5.0 12.0 0.00 0.03 0.00 65 1016.3
20260507115904 56 141 6.0 12.0 0.00 0.03 0.00 65 1016.3
20260507115404 56 171 2.0 9.0 0.00 0.03 0.00 65 1016.4
20260507113904 57 193 3.0 9.0 0.00 0.03 0.00 60 1016.4
20260507113404 57 177 5.0 13.0 0.00 0.03 0.00 58 1016.4
20260507110904 57 168 6.0 12.0 0.00 0.03 0.00 67 1016.3
20260507105403 56 164 2.0 9.0 0.00 0.03 0.00 75 1016.4
20260507103904 56 155 2.0 5.0 0.00 0.03 0.00 76 1016.5
20260507102904 56 195 2.0 7.0 0.00 0.03 0.00 77 1016.5
20260507100404 55 97 2.0 8.0 0.00 0.03 0.00 82 1016.5
20260507095904 55 144 1.0 10.0 0.00 0.03 0.00 83 1016.5
20260507095403 55 153 2.0 9.0 0.00 0.03 0.00 85 1016.5
20260507093904 52 161 2.0 6.0 0.00 0.03 0.00 91 1016.5
20260507092904 52 119 1.0 3.0 0.00 0.03 0.00 93 1016.5
20260507092404 52 137 1.0 7.0 0.00 0.03 0.00 93 1016.5
20260507090904 51 132 1.0 5.0 0.00 0.03 0.00 94 1016.5
20260507085904 51 149 1.0 3.0 0.00 0.03 0.00 94 1016.4
20260507085404 51 149 1.0 7.0 0.00 0.03 0.00 94 1016.5
20260507083904 50 117 2.0 7.0 0.00 0.03 0.00 94 1016.5
20260507082904 50 108 2.0 7.0 0.00 0.03 0.00 94 1016.4
20260507082404 50 127 1.0 6.0 0.00 0.03 0.00 94 1016.4
20260507080903 50 132 2.0 6.0 0.00 0.03 0.00 94 1016.5
20260507080404 50 116 1.0 7.0 0.00 0.03 0.00 94 1016.5
20260507075904 50 123 2.0 7.0 0.00 0.03 0.00 94 1016.4
20260507075404 50 110 2.0 6.0 0.00 0.03 0.00 94 1016.4
20260507073904 49 116 2.0 7.0 0.00 0.03 0.00 94 1016.3
20260507073404 49 132 2.0 6.0 0.00 0.03 0.00 94 1016.3
20260507072903 49 121 2.0 6.0 0.00 0.03 0.00 94 1016.3
20260507070904 49 142 2.0 5.0 0.00 0.03 0.00 94 1016.1
20260507070404 49 98 1.0 3.0 0.00 0.03 0.00 94 1016.1
20260507065904 49 95 2.0 3.0 0.00 0.03 0.00 94 1016.1
20260507065404 49 94 0.0 1.0 0.00 0.03 0.00 94 1016.1
20260507063903 48 94 0.0 0.0 0.00 0.03 0.00 94 1016.1
20260507063404 48 94 0.0 1.0 0.00 0.03 0.00 94 1016.1
20260507062904 48 92 0.0 3.0 0.00 0.03 0.00 94 1016.0
20260507062403 48 98 1.0 6.0 0.00 0.03 0.00 94 1015.9
20260507060403 47 118 2.0 6.0 0.00 0.03 0.00 94 1015.8
20260507055904 47 105 1.0 6.0 0.00 0.03 0.00 94 1015.8
20260507055405 47 117 1.0 3.0 0.00 0.03 0.00 94 1015.7
20260507053904 46 112 0.0 2.0 0.00 0.03 0.00 94 1015.7
20260507053403 46 113 1.0 3.0 0.00 0.03 0.00 94 1015.7
20260507052904 46 109 0.0 0.0 0.00 0.03 0.00 94 1015.7
20260507050904 46 109 0.0 2.0 0.00 0.03 0.00 94 1015.6
20260507050404 46 108 0.0 0.0 0.00 0.03 0.00 94 1015.5
20260507045904 46 108 1.0 2.0 0.00 0.03 0.00 94 1015.5
20260507045404 46 109 1.0 2.0 0.00 0.03 0.00 94 1015.5
20260507043904 45 107 0.0 3.0 0.00 0.03 0.00 94 1015.5
20260507042905 45 111 1.0 3.0 0.00 0.03 0.00 94 1015.4
20260507042403 46 111 0.0 2.0 0.00 0.03 0.00 94 1015.4
20260507040404 45 106 1.0 2.0 0.00 0.03 0.00 93 1015.4
20260507035904 45 110 0.0 0.0 0.00 0.03 0.00 94 1015.4
20260507035404 45 111 0.0 0.0 0.00 0.03 0.00 94 1015.3
20260507033905 45 113 0.0 0.0 0.00 0.03 0.00 93 1015.4
20260507032403 45 115 0.0 3.0 0.00 0.03 0.00 93 1015.3
20260507030903 45 112 0.0 2.0 0.00 0.03 0.00 93 1015.3
20260507030404 45 110 1.0 3.0 0.00 0.03 0.00 93 1015.3
20260507025904 45 113 1.0 3.0 0.00 0.03 0.00 93 1015.3
20260507023904 46 113 0.0 0.0 0.00 0.03 0.00 93 1015.2
20260507023404 46 113 0.0 0.0 0.00 0.03 0.00 93 1015.2
20260507022904 46 113 0.0 0.0 0.00 0.03 0.00 93 1015.2
20260507020903 46 115 0.0 0.0 0.00 0.03 0.00 93 1015.2
20260507020403 46 115 0.0 0.0 0.00 0.03 0.00 93 1015.3
20260507015904 46 116 0.0 0.0 0.00 0.03 0.00 93 1015.2
20260507015403 46 117 0.0 0.0 0.00 0.03 0.00 93 1015.2
20260507013904 46 119 0.0 1.0 0.00 0.03 0.00 93 1015.2
20260507013404 46 117 1.0 3.0 0.00 0.03 0.00 93 1015.2
20260507012904 47 111 1.0 3.0 0.00 0.03 0.00 93 1015.1
20260507010904 47 105 0.0 0.0 0.00 0.03 0.00 93 1015.3
20260507010404 47 105 0.0 0.0 0.00 0.03 0.00 93 1015.2
20260507005404 47 107 0.0 3.0 0.00 0.03 0.00 93 1015.3
20260507003904 47 107 1.0 2.0 0.00 0.03 0.00 93 1015.3
20260507002903 47 110 0.0 2.0 0.00 0.03 0.00 93 1015.3
20260507002404 47 109 0.0 3.0 0.00 0.03 0.00 93 1015.3
20260507000904 47 107 1.0 3.0 0.00 0.03 0.00 93 1015.5
20260507000405 47 108 0.0 2.0 0.00 0.03 0.00 93 1015.5
20260506235904 47 109 1.0 3.0 0.00 0.03 0.00 93 1015.6
20260506235404 47 109 1.0 3.0 0.00 0.03 0.00 93 1015.6
20260506233903 47 112 0.0 0.0 0.00 0.03 0.00 92 1015.6
20260506233404 47 113 0.0 0.0 0.00 0.03 0.00 92 1015.5
20260506232904 47 113 0.0 0.0 0.00 0.03 0.00 92 1015.5
20260506232403 47 112 0.0 3.0 0.00 0.03 0.00 92 1015.5
20260506230904 47 115 0.0 6.0 0.00 0.03 0.00 92 1015.5
20260506230403 47 116 1.0 6.0 0.00 0.03 0.00 92 1015.5
20260506223903 48 113 0.0 0.0 0.00 0.03 0.03 92 1015.6
20260506223403 48 113 0.0 0.0 0.00 0.03 0.03 92 1015.5
20260506222904 48 113 0.0 0.0 0.00 0.03 0.03 92 1015.6
20260506220904 48 113 0.0 0.0 0.00 0.03 0.03 91 1015.6
20260506220403 48 113 0.0 0.0 0.00 0.03 0.03 91 1015.6
20260506215904 48 113 0.0 2.0 0.00 0.03 0.03 91 1015.5
20260506215404 48 113 1.0 2.0 0.00 0.03 0.03 91 1015.6
20260506213904 48 113 0.0 0.0 0.00 0.03 0.03 91 1015.6
20260506213404 48 113 0.0 1.0 0.00 0.03 0.03 91 1015.5
20260506212903 48 113 0.0 0.0 0.00 0.03 0.03 90 1015.5
20260506212403 48 113 0.0 0.0 0.00 0.03 0.03 90 1015.6
20260506210903 49 113 0.0 1.0 0.00 0.03 0.03 90 1015.5
20260506210404 49 113 0.0 0.0 0.00 0.03 0.03 90 1015.5
20260506205903 49 113 0.0 0.0 0.00 0.03 0.03 90 1015.5
20260506205404 49 113 0.0 0.0 0.00 0.03 0.03 90 1015.6
20260506203904 50 113 0.0 1.0 0.00 0.03 0.03 89 1015.5
20260506202404 50 113 0.0 3.0 0.00 0.03 0.03 89 1015.4
20260506200403 50 111 0.0 0.0 0.00 0.03 0.03 89 1015.3
20260506195904 50 111 0.0 3.0 0.00 0.03 0.03 89 1015.2
20260506195404 50 111 0.0 3.0 0.00 0.03 0.03 89 1015.2
20260506193904 51 111 0.0 0.0 0.00 0.03 0.03 89 1015.2
20260506193403 51 111 0.0 0.0 0.00 0.03 0.03 88 1015.2
20260506192904 51 111 0.0 0.0 0.00 0.03 0.03 88 1015.2
20260506190904 51 111 0.0 0.0 0.00 0.03 0.03 88 1015.1
20260506190404 52 111 0.0 0.0 0.00 0.03 0.03 87 1015.1